When you browse on this site, cookies collect data to enhance your experience and personalize the content and advertising you see.
Visit our Privacy Policy to learn more. By continuing to use the site, you agree to this use of cookies and data.
  • In Hungary
  • List of Countries
  • For 7 days
  • Water Temperature
  • Satellite Maps
  • Weather Map
  • News
  • Weather Widgets
  • user-avatar
    Login

    Hourly Weather Peschanka

    Today, 18 November, Sunday

    Time Temperature Precipitation Wind Pressure Humidity
    00:00 0°C° 0 mm 1 mps 754 mmHg 66%
    01:00 0°C° 0 mm 1 mps 754 mmHg 66%
    02:00 0°C° 0 mm 1 mps 754 mmHg 67%
    03:00 0°C° 0 mm 1 mps 753 mmHg 67%
    04:00 -1°C° 0 mm 1 mps 753 mmHg 67%
    05:00 -1°C° 0 mm 1 mps 752 mmHg 67%
    06:00 -1°C° 0 mm 1 mps 752 mmHg 66%
    07:00 -1°C° 0 mm 1 mps 751 mmHg 66%
    08:00 -1°C° 0 mm 1 mps 751 mmHg 66%
    09:00 0°C° 0 mm 1 mps 751 mmHg 64%
    10:00 -1°C° 0 mm 2 mps 750 mmHg 62%
    11:00 +1°C° 0 mm 2 mps 750 mmHg 60%
    12:00 +3°C° 0 mm 1 mps 750 mmHg 59%
    13:00 +3°C° 0 mm 1 mps 749 mmHg 59%
    14:00 +2°C° 0 mm 2 mps 749 mmHg 57%
    15:00 +3°C° 0 mm 1 mps 748 mmHg 59%
    16:00 +2°C° 0 mm 1 mps 748 mmHg 62%
    17:00 +1°C° 0 mm 0 mps 748 mmHg 65%
    18:00 0°C° 0 mm 0 mps 748 mmHg 66%
    19:00 0°C° 0 mm 0 mps 747 mmHg 68%
    20:00 0°C° 0 mm 0 mps 747 mmHg 69%
    21:00 -1°C° 0 mm 0 mps 747 mmHg 70%
    22:00 0°C° 0 mm 1 mps 747 mmHg 71%
    23:00 0°C° 0 mm 1 mps 747 mmHg 72%

    Tomorrow, 19 November, Monday

    Time Temperature Precipitation Wind Pressure Humidity
    00:00 0°C° 0 mm 1 mps 747 mmHg 71%
    01:00 0°C° 0 mm 1 mps 747 mmHg 71%
    02:00 0°C° 0 mm 1 mps 747 mmHg 70%
    03:00 -2°C° 0 mm 2 mps 747 mmHg 69%
    04:00 -2°C° 0 mm 2 mps 746 mmHg 68%
    05:00 -2°C° 0 mm 3 mps 746 mmHg 66%
    06:00 -2°C° 0 mm 3 mps 746 mmHg 66%
    07:00 -2°C° 0 mm 3 mps 746 mmHg 67%
    08:00 -3°C° 0 mm 4 mps 746 mmHg 67%
    09:00 -2°C° 0.1 mm 4 mps 746 mmHg 68%
    10:00 -2°C° 0.1 mm 5 mps 746 mmHg 70%
    11:00 -1°C° 0.1 mm 5 mps 746 mmHg 72%
    12:00 -2°C° 0.1 mm 6 mps 745 mmHg 71%
    13:00 -2°C° 0.1 mm 6 mps 745 mmHg 70%
    14:00 -1°C° 0.1 mm 6 mps 745 mmHg 69%
    15:00 -2°C° 0.3 mm 6 mps 745 mmHg 68%
    16:00 -1°C° 0.3 mm 5 mps 745 mmHg 68%
    17:00 -2°C° 0.3 mm 4 mps 745 mmHg 67%
    18:00 -2°C° 0.6 mm 5 mps 745 mmHg 74%
    19:00 -4°C° 0.6 mm 6 mps 745 mmHg 81%
    20:00 -4°C° 0.6 mm 6 mps 745 mmHg 88%
    21:00 -4°C° 0.5 mm 6 mps 745 mmHg 89%
    22:00 -4°C° 0.5 mm 6 mps 745 mmHg 89%
    23:00 -4°C° 0.5 mm 6 mps 745 mmHg 90%

    Day after tomorrow, 20 November, Tuesday

    Time Temperature Precipitation Wind Pressure Humidity
    00:00 -4°C° 0.1 mm 6 mps 745 mmHg 89%
    01:00 -4°C° 0.1 mm 6 mps 746 mmHg 89%
    02:00 -4°C° 0.1 mm 6 mps 746 mmHg 88%
    03:00 -5°C° 0 mm 5 mps 746 mmHg 88%
    04:00 -5°C° 0 mm 5 mps 746 mmHg 88%
    05:00 -5°C° 0 mm 5 mps 746 mmHg 88%
    06:00 -4°C° 0 mm 4 mps 747 mmHg 88%
    07:00 -4°C° 0 mm 4 mps 747 mmHg 88%
    08:00 -4°C° 0 mm 3 mps 747 mmHg 89%
    09:00 -3°C° 0 mm 4 mps 747 mmHg 87%
    10:00 -3°C° 0 mm 4 mps 748 mmHg 85%
    11:00 -2°C° 0 mm 4 mps 748 mmHg 84%
    12:00 -2°C° 0 mm 4 mps 748 mmHg 82%
    13:00 -1°C° 0 mm 3 mps 748 mmHg 81%
    14:00 0°C° 0 mm 3 mps 748 mmHg 79%
    15:00 -1°C° 0 mm 3 mps 748 mmHg 80%
    16:00 -1°C° 0 mm 3 mps 748 mmHg 82%
    17:00 -2°C° 0 mm 3 mps 747 mmHg 83%
    18:00 -2°C° 0 mm 3 mps 748 mmHg 84%
    19:00 -4°C° 0 mm 3 mps 748 mmHg 86%
    20:00 -4°C° 0 mm 3 mps 748 mmHg 87%
    21:00 -4°C° 0 mm 3 mps 748 mmHg 85%
    22:00 -4°C° 0 mm 3 mps 748 mmHg 83%
    23:00 -4°C° 0 mm 3 mps 748 mmHg 82%

    21 November, Wednesday

    Time Temperature Precipitation Wind Pressure Humidity
    00:00 -4°C° 0 mm 3 mps 748 mmHg 81%
    01:00 -4°C° 0 mm 3 mps 748 mmHg 81%
    02:00 -4°C° 0 mm 3 mps 747 mmHg 81%
    03:00 -4°C° 0 mm 3 mps 747 mmHg 82%
    04:00 -4°C° 0 mm 3 mps 747 mmHg 83%
    05:00 -4°C° 0 mm 3 mps 747 mmHg 84%
    06:00 -5°C° 0 mm 4 mps 747 mmHg 85%
    07:00 -5°C° 0 mm 4 mps 747 mmHg 85%
    08:00 -5°C° 0 mm 4 mps 747 mmHg 86%
    09:00 -4°C° 0 mm 4 mps 747 mmHg 84%
    10:00 -3°C° 0 mm 4 mps 748 mmHg 83%
    11:00 -3°C° 0 mm 4 mps 748 mmHg 82%
    12:00 -2°C° 0 mm 4 mps 748 mmHg 81%
    13:00 -2°C° 0 mm 4 mps 747 mmHg 81%
    14:00 -1°C° 0 mm 4 mps 747 mmHg 81%
    15:00 -2°C° 0 mm 4 mps 747 mmHg 84%
    16:00 -3°C° 0 mm 4 mps 747 mmHg 87%
    17:00 -4°C° 0 mm 3 mps 747 mmHg 89%
    18:00 -4°C° 0 mm 3 mps 748 mmHg 90%
    19:00 -4°C° 0 mm 3 mps 748 mmHg 90%
    20:00 -5°C° 0 mm 3 mps 748 mmHg 91%
    21:00 -5°C° 0 mm 3 mps 748 mmHg 91%
    22:00 -5°C° 0 mm 3 mps 749 mmHg 91%
    23:00 -5°C° 0 mm 3 mps 749 mmHg 91%

    22 November, Thursday

    Time Temperature Precipitation Wind Pressure Humidity
    00:00 -5°C° 0 mm 3 mps 749 mmHg 92%
    01:00 -5°C° 0 mm 3 mps 749 mmHg 92%
    02:00 -6°C° 0 mm 3 mps 749 mmHg 93%
    03:00 -6°C° 0 mm 3 mps 749 mmHg 93%
    04:00 -5°C° 0 mm 2 mps 749 mmHg 93%
    05:00 -5°C° 0 mm 2 mps 749 mmHg 93%
    06:00 -5°C° 0 mm 2 mps 750 mmHg 92%
    07:00 -5°C° 0 mm 2 mps 750 mmHg 92%
    08:00 -5°C° 0 mm 2 mps 750 mmHg 92%
    09:00 -4°C° 0 mm 2 mps 751 mmHg 87%
    10:00 -3°C° 0 mm 2 mps 751 mmHg 82%
    11:00 -2°C° 0 mm 2 mps 751 mmHg 78%
    12:00 -2°C° 0 mm 2 mps 751 mmHg 75%
    13:00 -1°C° 0 mm 3 mps 751 mmHg 73%
    14:00 -1°C° 0 mm 3 mps 751 mmHg 71%
    15:00 -2°C° 0 mm 3 mps 751 mmHg 75%
    16:00 -2°C° 0 mm 2 mps 751 mmHg 78%
    17:00 -3°C° 0 mm 2 mps 751 mmHg 82%
    18:00 -4°C° 0 mm 2 mps 751 mmHg 84%
    19:00 -4°C° 0 mm 2 mps 752 mmHg 85%
    20:00 -4°C° 0 mm 2 mps 752 mmHg 87%
    21:00 -4°C° 0 mm 2 mps 752 mmHg 87%
    22:00 -5°C° 0 mm 2 mps 752 mmHg 88%
    23:00 -5°C° 0 mm 2 mps 753 mmHg 89%

    23 November, Friday

    Time Temperature Precipitation Wind Pressure Humidity
    00:00 -5°C° 0 mm 2 mps 753 mmHg 89%
    01:00 -5°C° 0 mm 2 mps 753 mmHg 89%
    02:00 -5°C° 0 mm 2 mps 753 mmHg 89%
    03:00 -5°C° 0 mm 2 mps 753 mmHg 88%
    04:00 -5°C° 0 mm 2 mps 753 mmHg 88%
    05:00 -5°C° 0 mm 2 mps 753 mmHg 87%
    06:00 -5°C° 0 mm 2 mps 753 mmHg 87%
    07:00 -5°C° 0 mm 2 mps 754 mmHg 87%
    08:00 -5°C° 0 mm 2 mps 754 mmHg 86%
    09:00 -4°C° 0 mm 2 mps 754 mmHg 82%
    10:00 -3°C° 0 mm 2 mps 754 mmHg 77%
    11:00 -2°C° 0 mm 2 mps 755 mmHg 72%
    12:00 -1°C° 0 mm 2 mps 755 mmHg 70%
    13:00 -1°C° 0 mm 2 mps 755 mmHg 68%
    14:00 +2°C° 0 mm 1 mps 754 mmHg 66%
    15:00 +1°C° 0 mm 1 mps 754 mmHg 71%
    16:00 0°C° 0 mm 1 mps 754 mmHg 75%
    17:00 -1°C° 0 mm 1 mps 754 mmHg 80%
    18:00 -2°C° 0 mm 1 mps 754 mmHg 83%
    19:00 -2°C° 0 mm 1 mps 754 mmHg 85%
    20:00 -3°C° 0 mm 1 mps 754 mmHg 87%
    21:00 -3°C° 0 mm 1 mps 754 mmHg 88%
    22:00 -3°C° 0 mm 1 mps 754 mmHg 89%
    23:00 -3°C° 0 mm 1 mps 753 mmHg 90%
    Show more